Weather History for KFLD - October, 2013

Change the Weather History Date:

Tuesday, October 1, 2013

  Actual Average (WUND) Record (WUND)
Temperature  
Mean Temperature 68 °F -  
Max Temperature 79 °F - - (-1)
Min Temperature 59 °F - - (-1)
Cooling Degree Days 4    
Growing Degree Days 18 (Base 50)    
Moisture  
Dew Point 53 °F    
Average Humidity 62    
Maximum Humidity 83    
Minimum Humidity 48    
Precipitation  
Precipitation 0.00 in - - ()
Sea Level Pressure  
Sea Level Pressure 29.84 in    
Wind  
Wind Speed 11 mph (SW)    
Max Wind Speed 20 mph    
Max Gust Speed 26 mph    
Visibility 10 miles    
Events      
Averages and records for this station are not official NWS values.
T = Trace of Precipitation, MM = Missing Value Source: NWS Daily Summary

Daily Weather History Graph

Daily Weather History Graph

Search for Another Location

Airport or City:

Trip Planner

Search our weather history database for the weather conditions in past years. The results will help you decide how hot, cold, wet, or windy it might be!

Date:

Astronomy

Oct. 01, 2013 Rise Set
Actual Time 6:51 AM CDT 6:34 PM CDT
Civil Twilight 6:23 AM CDT 7:03 PM CDT
Nautical Twilight 5:49 AM CDT 7:36 PM CDT
Astronomical Twilight 5:16 AM CDT 8:10 PM CDT
Moon 3:20 AM CDT (10/1) 4:42 PM CDT (10/1)
Length of Visible Light 12h 39m
Length of Day
11h 42m
Waning Crescent, 12% of the Moon is Illuminated
Oct 1
Waning Crescent
Oct 4
New
Oct 11
First Quarter
Oct 18
Full
Oct 26
Last Quarter

Hourly Weather History & Observations

Time (CDT) Temp. Dew Point Humidity Pressure Visibility Wind Dir Wind Speed Gust Speed Precip Events Conditions
12:53 AM 62.1 °F 46.9 °F 58% 29.83 in 10.0 mi SSW 10.4 mph - N/A   Clear
1:53 AM 61.0 °F 48.0 °F 62% 29.83 in 10.0 mi SSW 11.5 mph - N/A   Clear
2:53 AM 61.0 °F 50.0 °F 67% 29.83 in 10.0 mi South 10.4 mph - N/A   Clear
3:53 AM 61.0 °F 51.1 °F 70% 29.82 in 10.0 mi SSW 12.7 mph 20.7 mph N/A   Clear
4:53 AM 59.0 °F 51.1 °F 75% 29.83 in 10.0 mi SSW 10.4 mph - N/A   Clear
5:53 AM 59.0 °F 53.1 °F 81% 29.82 in 10.0 mi SSW 13.8 mph - N/A   Clear
6:53 AM 60.1 °F 54.0 °F 80% 29.83 in 10.0 mi SSW 15.0 mph 23.0 mph N/A   Clear
7:53 AM 60.1 °F 55.0 °F 83% 29.83 in 10.0 mi SSW 13.8 mph 23.0 mph N/A   Clear
8:53 AM 63.0 °F 55.9 °F 78% 29.82 in 10.0 mi SSW 15.0 mph 23.0 mph N/A   Clear
9:53 AM 66.9 °F 55.9 °F 68% 29.81 in 10.0 mi SSW 17.3 mph 25.3 mph N/A   Clear
10:53 AM 71.1 °F 57.0 °F 61% 29.81 in 10.0 mi SW 12.7 mph 25.3 mph N/A   Clear
11:53 AM 73.0 °F 57.0 °F 57% 29.81 in 10.0 mi SW 19.6 mph 26.5 mph N/A   Clear
12:53 PM 75.9 °F 57.0 °F 52% 29.81 in 10.0 mi SW 15.0 mph 26.5 mph N/A   Clear
1:53 PM 77.0 °F 57.0 °F 50% 29.81 in 10.0 mi WSW 16.1 mph 23.0 mph N/A   Clear
2:53 PM 78.1 °F 57.0 °F 48% 29.81 in 10.0 mi SW 12.7 mph 24.2 mph N/A   Clear
3:53 PM 78.1 °F 57.0 °F 48% 29.81 in 10.0 mi WSW 10.4 mph - N/A   Clear
4:53 PM 78.1 °F 57.0 °F 48% 29.82 in 10.0 mi WSW 10.4 mph - N/A   Clear
5:53 PM 75.0 °F 57.9 °F 55% 29.85 in 10.0 mi WSW 6.9 mph - N/A   Clear
6:53 PM 71.1 °F 55.9 °F 59% 29.86 in 10.0 mi SW 4.6 mph - N/A   Clear
7:53 PM 68.0 °F 55.9 °F 65% 29.89 in 10.0 mi WSW 4.6 mph - N/A   Clear
8:53 PM 66.0 °F 54.0 °F 65% 29.91 in 10.0 mi WSW 4.6 mph - N/A   Clear
9:53 PM 64.0 °F 50.0 °F 60% 29.92 in 10.0 mi West 4.6 mph - N/A   Clear
10:53 PM 61.0 °F 44.1 °F 54% 29.94 in 10.0 mi WNW 6.9 mph - N/A   Clear
11:53 PM 59.0 °F 42.1 °F 53% 29.96 in 10.0 mi West 3.5 mph - N/A   Clear